Montreal-Pierre Elliott T, Canada

8:20 AM EST on February 12, 2016 (GMT -0500)
Montreal International (Dorval)

Weather History for CYUL - April, 2013

Change the Weather History Date:

Wednesday, April 17, 2013

  Actual Average Record
Temperature  
Mean Temperature 46 °F -  
Max Temperature 56 °F 52 °F 75 °F (2002)
Min Temperature 37 °F 34 °F 17 °F (2003)
Degree Days  
Heating Degree Days 18    
Moisture  
Dew Point 27 °F    
Average Humidity 46    
Maximum Humidity 75    
Minimum Humidity 22    
Precipitation  
Precipitation 0.00 in - - ()
Sea Level Pressure  
Sea Level Pressure 30.27 in    
Wind  
Wind Speed 8 mph ()    
Max Wind Speed 13 mph    
Max Gust Speed 23 mph    
Visibility 15.0 miles    
Events      
Averages and records for this station are not official NWS values.
T = Trace of Precipitation, MM = Missing Value Source: Averaged Metar Reports

Daily Weather History Graph

Daily Weather History Graph

Search for Another Location

Airport or City:

Trip Planner

Search our weather history database for the weather conditions in past years. The results will help you decide how hot, cold, wet, or windy it might be!

Date:

Astronomy

Apr. 17, 2013 Rise Set
Actual Time 6:05 AM EDT 7:44 PM EDT
Civil Twilight 5:34 AM EDT 8:15 PM EDT
Nautical Twilight 4:56 AM EDT 8:53 PM EDT
Astronomical Twilight 4:15 AM EDT 9:34 PM EDT
Moon 11:11 AM EDT (4/17) 1:26 AM EDT (4/17)
Length of Visible Light 14h 40m
Length of Day
13h 38m
Waxing Crescent, 42% of the Moon is Illuminated
Apr 17
Waxing Crescent
Apr 18
First Quarter
Apr 25
Full
May 2
Last Quarter
May 9
New

Hourly Weather History & Observations

Time (EDT) Temp. Windchill Dew Point Humidity Pressure Visibility Wind Dir Wind Speed Gust Speed Precip Events Conditions
12:00 AM 46.4 °F 40.7 °F 30.2 °F 53% 30.09 in 15.0 mi WNW 12.7 mph 23.0 mph N/A   Partly Cloudy
1:00 AM 44.6 °F 39.2 °F 30.2 °F 57% 30.12 in 15.0 mi West 10.4 mph - N/A   Clear
2:00 AM 42 °F - 30 °F 51% 30.13 in 15 mi West 9.2 mph - -  
2:00 AM 42.8 °F 37.5 °F 30.2 °F 61% 30.13 in 15.0 mi West 9.2 mph - N/A   Clear
3:00 AM 41.0 °F 35.2 °F 30.2 °F 65% 30.16 in 15.0 mi West 9.2 mph - N/A   Clear
4:00 AM 41.0 °F 35.8 °F 30.2 °F 65% 30.18 in 15.0 mi West 8.1 mph - N/A   Clear
5:00 AM 39.2 °F 33.6 °F 30.2 °F 70% 30.20 in 15.0 mi WNW 8.1 mph - N/A   Clear
6:00 AM 37.4 °F 31.4 °F 30.2 °F 75% 30.22 in 30.0 mi WNW 8.1 mph - N/A   Partly Cloudy
7:00 AM 39.2 °F 33.0 °F 28.4 °F 65% 30.25 in 30.0 mi NW 9.2 mph - N/A   Partly Cloudy
8:00 AM 42 °F - 29 °F 50% 30.27 in 28 mi NW 11.5 mph - -  
8:00 AM 42.8 °F 36.6 °F 30.2 °F 61% 30.27 in 30.0 mi NW 11.5 mph - N/A   Clear
9:00 AM 42.8 °F 36.6 °F 30.2 °F 61% 30.30 in 30.0 mi WNW 11.5 mph - N/A   Partly Cloudy
10:00 AM 44.6 °F 40.7 °F 28.4 °F 53% 30.31 in 30.0 mi NNW 6.9 mph - N/A   Partly Cloudy
11:00 AM 48.2 °F - 32.0 °F 54% 30.32 in 30.0 mi WNW 11.5 mph - N/A   Partly Cloudy
12:00 PM 48.2 °F - 28.4 °F 46% 30.31 in 30.0 mi WNW 6.9 mph - N/A   Partly Cloudy
1:00 PM 50.0 °F - 26.6 °F 40% 30.30 in 30.0 mi North 6.9 mph - N/A   Partly Cloudy
2:00 PM 53 °F - 26 °F 23% 30.33 in 28 mi West 3.5 mph - -   Scattered Clouds
2:00 PM 51.8 °F - 26.6 °F 38% 30.32 in 30.0 mi WNW 5.8 mph - N/A   Partly Cloudy
3:00 PM 53.6 °F - 26.6 °F 35% 30.33 in 30.0 mi WNW 8.1 mph - N/A   Partly Cloudy
4:00 PM 53.6 °F - 21.2 °F 28% 30.32 in 30.0 mi NW 5.8 mph - N/A   Partly Cloudy
5:00 PM 55.4 °F - 26.6 °F 33% 30.32 in 30.0 mi Variable 2.3 mph - N/A   Partly Cloudy
6:00 PM 53.6 °F - 26.6 °F 35% 30.34 in 30.0 mi South 10.4 mph - N/A   Partly Cloudy
7:00 PM 53.6 °F - 24.8 °F 33% 30.34 in 30.0 mi SSW 6.9 mph - N/A   Partly Cloudy
8:00 PM 48 °F - 21 °F 22% 30.36 in 28 mi NNE 9.2 mph - -   Clear
8:00 PM 48.2 °F - 21.2 °F 34% 30.36 in 30.0 mi NNE 8.1 mph - N/A   Partly Cloudy
9:00 PM 48.2 °F - 17.6 °F 30% 30.36 in 15.0 mi East 8.1 mph - N/A   Clear
10:00 PM 46.4 °F 41.1 °F 17.6 °F 32% 30.35 in 15.0 mi NE 11.5 mph - N/A   Clear
11:00 PM 44.6 °F 38.4 °F 15.8 °F 31% 30.36 in 15.0 mi NE 12.7 mph - N/A   Clear